Location: Schommer Observatory
(40.5200°N, 74.4500°W)
Time: 12:04:13
(UTC-04:00)

ISS - Visible Passes

Search period start: 28 April 2017 00:00
Search period end: 08 May 2017 00:00
Orbit: 401 x 409 km, 51.6° (Epoch: 29 April)

Date Brightness Start Highest point End Pass type
(mag) Time Alt. Az. Time Alt. Az. Time Alt. Az.
04 May -1.8 05:02:45 10° S 05:05:24 23° SE 05:08:03 10° E visible
05 May -1.2 04:12:08 10° SSE 04:13:29 12° SE 04:14:49 10° ESE visible
06 May -3.5 04:54:47 14° SW 04:57:26 58° SE 05:00:40 10° ENE visible
07 May -2.5 04:04:43 26° SSE 04:05:23 29° SE 04:08:17 10° ENE visible
